Change the Weather History Date:

Wednesday, January 16, 2013

  Actual Average Record
Temperature  
Mean Temperature -4 °F -  
Max Temperature 3 °F - - ()
Min Temperature -11 °F - - ()
Degree Days  
Heating Degree Days 69    
Moisture  
Dew Point -7 °F    
Average Humidity 84    
Maximum Humidity 96    
Minimum Humidity 75    
Precipitation  
Precipitation 0.00 in - - ()
Sea Level Pressure  
Sea Level Pressure 30.24 in    
Wind  
Wind Speed 11 mph (NNE)    
Max Wind Speed 31 mph    
Max Gust Speed 36 mph    
Visibility 4 miles    
Events Snow    
T = Trace of Precipitation, MM = Missing Value Source: NWS Daily Summary

Daily Weather History Graph

Daily Weather History Graph

Search for Another Location

Airport or City:

Trip Planner

Search our weather history database for the weather conditions in past years. The results will help you decide how hot, cold, wet, or windy it might be!

Date:

Astronomy

Jan. 16, 2013 Rise Set
Actual Time 12:17 PM AKST 3:59 PM AKST
Civil Twilight 10:44 AM AKST 5:32 PM AKST
Nautical Twilight 9:27 AM AKST 6:49 PM AKST
Astronomical Twilight 8:20 AM AKST 7:56 PM AKST
Moon 11:30 AM AKST (1/16) 12:16 AM AKST (1/16)
Length of Visible Light 6h 47m
Length of Day
3h 42m
Waxing Crescent, 29% of the Moon is Illuminated
Jan 16
Waxing Crescent
Jan 18
First Quarter
Jan 26
Full
Feb 3
Last Quarter
Feb 9
New

Hourly Weather History & Observations

Time (AKST) Temp. Windchill Dew Point Humidity Pressure Visibility Wind Dir Wind Speed Gust Speed Precip Events Conditions
12:27 AM 3.2 °F -9.1 °F 1.4 °F 92% 30.13 in 2.5 mi East 6.9 mph - 0.00 in Snow Light Snow
12:53 AM 3.9 °F -6.9 °F 1.0 °F 88% 30.14 in 2.5 mi East 5.8 mph - 0.00 in Snow Light Snow
1:51 AM 1.4 °F -8.3 °F -0.4 °F 92% 30.15 in 3.0 mi ENE 4.6 mph - 0.00 in Snow Light Snow
1:53 AM 1.9 °F -7.6 °F -0.0 °F 91% 30.16 in 3.0 mi ENE 4.6 mph - 0.00 in Snow Light Snow
3:03 AM 1.4 °F -9.9 °F -0.4 °F 92% 30.18 in 2.5 mi North 5.8 mph - 0.00 in Snow Light Snow
3:11 AM 1.4 °F -11.3 °F -0.4 °F 92% 30.18 in 2.0 mi NNE 6.9 mph - 0.00 in Snow Light Snow
3:19 AM 1.4 °F -11.3 °F -2.2 °F 85% 30.18 in 1.8 mi NNE 6.9 mph - 0.00 in Snow Light Snow
3:25 AM -0.4 °F -13.4 °F -2.2 °F 92% 30.18 in 3.0 mi NNE 6.9 mph - 0.00 in Snow Light Snow
3:48 AM -2.2 °F -15.6 °F -5.8 °F 85% 30.18 in 5.0 mi NNE 6.9 mph - 0.00 in   Overcast
3:53 AM -5.1 °F -20.4 °F -6.0 °F 96% 30.19 in 5.0 mi NNE 8.1 mph - 0.00 in   Overcast
4:20 AM -2.2 °F -15.6 °F -5.8 °F 85% 30.19 in 2.5 mi North 6.9 mph - 0.00 in Snow Light Snow
4:29 AM -2.2 °F -15.6 °F -5.8 °F 85% 30.19 in 3.0 mi NNE 6.9 mph - 0.00 in Snow Light Snow
4:48 AM -2.2 °F -14.2 °F -5.8 °F 85% 30.19 in 6.0 mi North 5.8 mph - 0.00 in   Scattered Clouds
4:53 AM -2.9 °F -11.2 °F -6.0 °F 87% 30.19 in 6.0 mi NNW 3.5 mph - 0.00 in   Partly Cloudy
5:53 AM -7.1 °F -23.9 °F -9.0 °F 91% 30.20 in 6.0 mi NNW 9.2 mph - N/A   Scattered Clouds
6:53 AM -6.0 °F -21.5 °F -8.0 °F 91% 30.21 in 6.0 mi NNW 8.1 mph - N/A   Overcast
7:53 AM -0.9 °F -16.4 °F -5.1 °F 83% 30.22 in 8.0 mi North 9.2 mph - N/A   Overcast
8:53 AM -2.0 °F -21.9 °F -7.1 °F 79% 30.23 in 8.0 mi North 15.0 mph - N/A   Mostly Cloudy
9:53 AM -2.0 °F -23.3 °F -7.1 °F 79% 30.23 in 8.0 mi North 17.3 mph - N/A   Overcast
10:53 AM -7.1 °F -32.1 °F -11.9 °F 79% 30.23 in 7.0 mi North 21.9 mph - N/A   Clear
11:53 AM -8.0 °F -31.6 °F -13.0 °F 79% 30.24 in 7.0 mi NNE 18.4 mph - N/A   Clear
12:53 PM -9.0 °F -31.7 °F -14.1 °F 79% 30.25 in 7.0 mi NNE 16.1 mph - N/A   Clear
1:53 PM -11.0 °F -33.5 °F -15.0 °F 83% 30.26 in 7.0 mi NE 15.0 mph - N/A   Clear
2:53 PM -9.9 °F - -15.0 °F 78% 30.27 in 6.0 mi Calm Calm - N/A   Haze
3:53 PM -7.1 °F -26.8 °F -11.9 °F 79% 30.28 in 6.0 mi NE 12.7 mph - N/A   Haze
4:53 PM -2.9 °F -25.0 °F -9.0 °F 75% 30.29 in 7.0 mi NNE 18.4 mph - N/A   Mostly Cloudy
5:53 PM -5.1 °F -25.9 °F -9.9 °F 80% 30.29 in 9.0 mi NNE 15.0 mph - N/A   Clear
6:54 PM -4.0 °F -28.6 °F -9.0 °F 79% 30.30 in 6.0 mi North 23.0 mph - N/A   Haze
7:44 PM -4.0 °F -30.9 °F -9.4 °F 78% 30.29 in 1.8 mi NNE 28.8 mph - N/A   Haze
7:53 PM -4.0 °F -31.3 °F -9.0 °F 79% 30.29 in 1.5 mi NNE 29.9 mph - N/A   Haze
8:53 PM -5.1 °F -32.7 °F -9.0 °F 83% 30.30 in 1.5 mi NNE 29.9 mph - N/A   Clear
9:24 PM -5.8 °F -33.3 °F -9.4 °F 84% 30.30 in 1.5 mi NNE 28.8 mph - N/A   Clear
9:49 PM -5.8 °F -33.3 °F -9.4 °F 84% 30.31 in 2.0 mi NNE 28.8 mph - N/A   Haze
9:53 PM -5.1 °F -32.3 °F -9.9 °F 80% 30.31 in 2.0 mi NNE 28.8 mph - N/A   Haze
10:07 PM -5.8 °F -33.7 °F -9.4 °F 84% 30.31 in 1.5 mi NNE 29.9 mph 35.7 mph 0.00 in   Clear
10:53 PM -6.0 °F -33.9 °F -11.0 °F 79% 30.33 in 1.5 mi NNE 29.9 mph - 0.00 in   Clear
11:53 PM -7.1 °F -35.8 °F -11.0 °F 83% 30.34 in 1.2 mi North 31.1 mph - 0.00 in   Clear